User: anonymous   Login
Location: Anjeux
(47.8815°N, 6.2076°E)
Time: 10:59:40
(UTC+00:00)
Language:

RS-44 - Orbit

View from above orbital plane
View from above orbital plane
View from above satellite
View from above satellite

Ground track
Ground track

The orbit data is extracted from the following two-line orbital elements,

1 44909U 19096E   21334.84327117  .00000011  00000-0 -50713-5 0  9991
2 44909  82.5216   2.2537 0218385  64.2557 298.0909 12.79711259 90108
Epoch (UTC): 30 November 2021 20:14:18
Eccentricity: 0.0218385
inclination: 82.5216°
perigee height: 1174 km
apogee height: 1511 km
right ascension of ascending node: 2.2537°
argument of perigee: 64.2557°
revolutions per day: 12.79711259
mean anomaly at epoch: 298.0909°
orbit number at epoch: 9010

The dashed part of the orbit path shows where the satellite is in the earth's shadow,  

DLR